Terminal Aerodrome Forecast
Issued by NWS Cleveland, OH

Home | Current Version | Previous Version | Text Only | Print | Product List | Glossary On
Versions: 1 2 3 4 5 6 7 8 9 10 11 12 13 14 15 16
000
FTUS41 KCLE 280500
TAFERI
TAF
KERI 280538Z 2806/2906 22010G18KT 6SM -SHRA SCT008 OVC018
      TEMPO 2808/2811 4SM -SHRA OVC008
     FM281100 27010KT P6SM OVC015
      TEMPO 2811/2813 4SM -SHSNPL
     FM281400 30010KT P6SM OVC018
     FM281700 30010KT P6SM OVC025
     FM282200 29006KT P6SM BKN035=

USA.gov is the U.S. government's official web portal to all federal, state and local government web resources and services.